Overview Statistics Trail Chart Weather Telemetry Raw packets
 

This is the latest recevied weather packets stored in our database for station/object VE3DVC. If no packets are shown the sender has not sent any weather packets the latest 10 day(s).

<< 40 41 42 43 44 >>
Time Temp. Humidity Pressure Rain* Wind** Luminosity Snow
1787882976 18.89° C 88% 1015.4 hPa 0 mm - - -
1787882254 19.44° C 88% 1015.2 hPa 0 mm - - -
1787881534 20° C 87% 1015.1 hPa 0 mm - - -
1787880814 20° C 87% 1015 hPa 0 mm - - -
1787880094 20.56° C 85% 1014.8 hPa 0 mm - - -
1787879374 20.56° C 85% 1014.6 hPa 0 mm - - -
1787878654 20.56° C 85% 1014.3 hPa 0 mm - - -
1787877934 21.11° C 85% 1014.1 hPa 0 mm - - -
1787877214 21.11° C 84% 1014 hPa 0 mm - - -
1787876495 21.67° C 83% 1013.8 hPa 0 mm - - -
1787875774 21.67° C 82% 1013.7 hPa 0 mm - - -
1787875057 22.22° C 81% 1013.7 hPa 0 mm - - -
1787874000 22.78° C 79% 1013.7 hPa 0 mm - - -
1787873279 22.78° C 79% 1013.7 hPa 0 mm - - -
1787870892 23.33° C 76% 1013.5 hPa 0 mm - - -
1787870171 23.89° C 75% 1013.5 hPa 0 mm - - -
1787869452 23.89° C 76% 1013.5 hPa 0 mm - - -
1787868731 23.89° C 76% 1013.3 hPa 0 mm - - -
1787868013 23.33° C 79% 1013.4 hPa 0 mm - - -
1787867292 23.33° C 78% 1013.3 hPa 0 mm - - -
1787866572 23.89° C 77% 1013.1 hPa 0 mm - - -
1787865852 23.89° C 78% 1013.1 hPa 0 mm - - -
1787865132 24.44° C 79% 1013 hPa 0 mm - - -
1787864412 24.44° C 80% 1013 hPa 0 mm - - -
1787863691 24.44° C 80% 1013 hPa 0 mm - - -

* Rain latest hour (hover to see other rain measurements)
** Current wind speed in m/s (hover to see current wind gust speed)